Location: Bastrop State Park
(30.1090°N, 97.2819°W)
Time: 13:58:54
(UTC-05:00)

Daily predictions for brighter satellites

Satellite Brightness Start Highest point End
(mag) Time Altitude Azimuth Time Altitude Azimuth Time Altitude Azimuth
Delta 142 4.0 20:54:41 10° W 20:58:59 56° S 21:04:17 10° ESE
Tiangong 1 2.7 21:01:24 10° S 21:03:23 16° SE 21:05:21 10° E
ERS-1 Rocket 4.1 21:00:10 10° SE 21:04:21 27° ENE 21:08:34 10° NNE
FengYun 1-2 T 4.4 20:58:53 10° S 21:04:22 78° WSW 21:09:55 10° NNW
Meteor 2-1 Rocket 4.2 20:59:59 10° N 21:05:36 70° E 21:11:05 10° SSE
deb Kosmos-1763 4.3 21:03:23 10° SSW 21:07:14 86° WNW 21:11:09 10° NNE
H-2A R/B 2.9 21:04:58 10° SSE 21:08:46 59° ENE 21:12:32 10° N
CZ-2D R/B 3.2 21:06:20 10° SSE 21:10:13 82° ENE 21:14:06 10° N
Cosmos 1777 Rocket 4.5 21:07:41 10° S 21:12:34 40° E 21:17:28 10° NNE
Cosmos 1378 3.3 21:08:56 10° S 21:12:41 79° W 21:16:26 10° N
H-2A R/B 1.8 21:12:38 10° SW 21:17:10 29° S 21:18:43 14° ESE
Cosmos 2360 4.2 21:11:54 10° NNW 21:17:38 75° ENE 21:23:20 10° SSE
Cosmos 1408 Rocket 4.3 21:13:48 10° SSW 21:18:08 58° W 21:22:28 10° N
Meteor 1-21 Rocket 4.5 21:13:36 10° SSE 21:18:53 47° E 21:24:09 10° NNE
AVUM R/B 3.5 21:17:08 10° SSE 21:18:56 22° ESE 21:20:49 10° NE
Cosmos 1553 Rocket 4.3 21:20:35 10° N 21:26:45 50° E 21:32:49 10° SSE
YAOGAN 11 4.0 21:29:05 10° SSE 21:33:22 76° ENE 21:37:41 10° N
CZ-2C R/B 1.6 21:34:46 18° NE 21:34:46 18° NE 21:35:40 10° NNE
Cosmos 1151 Rocket 4.5 21:33:49 10° NNE 21:37:05 21° ENE 21:38:40 17° ESE
ASTRO E2 4.1 21:33:51 10° W 21:37:12 25° SSW 21:39:30 16° SSE
Delta 128 3.9 21:34:44 10° W 21:39:20 52° SSW 21:42:10 20° ESE
SWIFT 4.3 21:42:11 10° SW 21:44:34 15° SSW 21:45:47 13° S
Cosmos 1538 Rocket 4.1 21:42:01 10° N 21:47:20 66° ENE 21:51:06 20° SSE
H-2A R/B 2.2 21:48:07 20° SSE 21:51:09 62° ENE 21:55:37 10° N
Cosmos 2219 3.7 21:46:24 10° S 21:51:41 39° ESE 21:57:00 10° NE
Cosmos 332 Rocket 4.4 21:47:16 10° NNW 21:52:01 56° WSW 21:56:30 11° S
Meteor 2-20 4.4 21:47:21 10° S 21:53:29 76° E 21:59:37 10° N
Cosmos 1441 Rocket 3.7 21:51:01 10° SSW 21:54:45 59° W 21:58:28 10° N
CZ-4B R/B 4.2 21:51:50 10° NNE 21:56:36 35° E 21:58:43 25° SE
CZ-4 SHROUD 4.4 21:57:27 27° E 21:57:37 27° ENE 22:00:19 10° NNE
Cosmos 1328 Rocket 3.7 21:56:08 10° N 22:00:35 76° W 22:03:54 17° S
GPS 2-12 Rocket1 4.3 21:58:33 10° SW 22:02:04 22° S 22:02:22 22° S
OAO 2 Rocket 3.5 22:02:33 10° SW 22:07:45 56° SSE 22:11:37 18° E
Cosmos 2322 Rocket 2.4 22:04:44 10° NNW 22:10:18 67° WSW 22:13:59 22° S
Cosmos 773 Rocket 4.1 22:05:32 10° N 22:10:41 60° ENE 22:12:51 34° SE
Cosmos 2228 Rocket 4.3 22:07:58 10° NNW 22:12:10 40° W 22:16:20 10° SSW
UNK 4.5 22:06:17 10° NNE 22:12:29 71° ESE 22:18:16 12° S
S3M 4.3 22:06:47 10° NNW 22:12:47 63° W 22:18:32 11° S
CZ-4 R/B 4.4 22:11:34 10° NNE 22:16:04 36° E 22:16:33 35° ESE
SL-16 R/B 2.6 22:14:49 10° NNW 22:20:22 58° WSW 22:23:46 23° S
ATLAS CENTAUR R/B 3.0 22:16:46 10° NW 22:20:25 27° WSW 22:22:28 18° SSW
Cosmos 2360 Rocket 2.6 22:15:08 10° N 22:20:34 47° ENE 22:22:22 35° ESE
Cosmos 1908 3.1 22:16:42 10° N 22:20:36 88° ENE 22:21:34 50° S
NOSS 3-1 (A) 3.4 22:21:17 23° S 22:24:43 52° ESE 22:30:40 10° NE
Cosmos 1939 Rocket 3.6 22:23:26 26° SSW 22:25:17 46° W 22:29:05 10° NNW
Meteor 1-11 4.5 22:25:08 38° SE 22:26:54 51° E 22:32:27 10° NNE
MetOp-B 4.1 22:26:49 40° SSE 22:28:44 71° ENE 22:34:04 10° N
Cosmos 1674 4.0 22:28:19 16° SW 22:31:00 38° W 22:34:36 10° NNW
Delta 2 Rocket 4.3 22:30:45 10° WNW 22:33:59 34° N 22:35:08 26° NNE
SPOT 5 2.8 22:34:33 44° S 22:35:53 70° WSW 22:40:33 10° NNW
Envisat 3.5 22:33:42 27° SSW 22:36:16 54° W 22:41:15 10° NNW
GPS 2-04 Rocket1 3.4 22:33:23 10° W 22:37:28 45° SSW 22:37:28 45° SSW
Tiangong 1 2.3 22:36:45 10° WSW 22:39:15 41° WNW 22:39:15 41° WNW
Cosmos 2227 Rocket 3.8 22:42:28 19° ENE 22:42:28 19° ENE 22:44:51 10° NE
SL-08 RB Rocket 4.3 22:40:45 38° ENE 22:40:45 38° ENE 22:44:45 10° N
Cosmos 1437 4.2 22:41:55 31° WSW 22:42:32 34° W 22:45:33 10° NNW
ATLAS 2AS CENTAUR R/B 3.8 22:48:10 29° E 22:48:10 29° E 22:53:37 10° NE
Cosmos 1300 3.7 22:43:22 10° N 22:46:04 37° NE 22:46:04 37° NE
Cosmos 1437 Rocket 4.3 22:44:07 10° NNW 22:47:27 29° W 22:48:31 25° WSW
Cosmos 2298 Rocket 3.9 22:48:24 51° S 22:49:47 84° ESE 22:55:07 10° NNE
Cosmos 2112 Rocket 3.8 22:47:23 10° NNW 22:52:39 76° ENE 22:53:12 68° SE
H-2A R/B 3.2 22:49:16 10° WSW 22:53:04 67° SSE 23:14:14 10° E
Cosmos 2333 Rocket 4.2 22:51:18 10° NNE 22:54:33 15° ENE 22:55:11 15° ENE
DELTA 2 R/B (1) 4.3 22:50:01 10° NW 22:55:22 48° NNE 22:57:08 35° ENE
Sich 1 3.1 22:56:58 69° NNE 22:56:58 69° NNE 23:00:54 10° N
YAOGAN 6 3.4 22:57:57 48° WNW 22:57:57 48° WNW 23:00:59 10° NNW
Cosmos 1633 Rocket 3.3 22:58:07 62° NNE 22:58:07 62° NNE 23:01:51 10° N
Cosmos 1937 Rocket 3.7 22:58:30 53° ENE 22:58:30 53° ENE 23:02:56 10° NNE
COSMOS 2428 2.9 23:01:02 10° N 23:06:37 55° ENE 23:06:47 55° ENE
Cosmos 2297 Rocket 3.9 23:10:25 20° ENE 23:10:25 20° ENE 23:12:35 10° NE
Cosmos 2315 Rocket 4.2 23:02:31 10° NNW 23:08:39 65° W 23:10:26 45° SSW
H-2A R/B 2.6 23:10:13 48° ENE 23:10:13 48° ENE 23:15:06 10° N
Cosmos 304 Rocket 4.3 23:05:55 10° NNW 23:10:35 51° WSW 23:10:43 51° WSW
NOSS 3-1 (C) 4.3 23:06:59 10° SW 23:12:30 46° NW 23:18:31 10° NNE
Landsat 7 4.1 23:18:17 60° NNE 23:18:17 60° NNE 23:22:16 10° N
ARGOS 3.3 23:18:34 62° SW 23:18:57 64° WSW 23:24:18 10° NNW
Cosmos 1241 Rocket 4.4 23:20:29 63° ENE 23:20:29 63° ENE 23:26:02 10° NNE
SPOT 1/Viking Rocket 4.2 23:21:45 45° WSW 23:22:08 46° W 23:27:04 10° NNW
Cosmos 2219 Rocket 3.1 23:17:47 10° N 23:22:26 35° NE 23:22:26 35° NE
Cosmos 2237 4.1 23:22:31 10° NNW 23:28:02 83° NW 23:28:02 83° NW
Terra 2.6 23:34:39 48° N 23:34:39 48° N 23:38:08 10° N
Nadezhda 1 Rocket 4.0 23:31:43 10° N 23:37:15 65° NE 23:37:15 65° NE
Cosmos 1726 4.4 23:35:35 10° NNW 23:37:27 25° NW 23:37:27 25° NW
Cosmos 1745 Rocket 4.1 23:42:06 62° WSW 23:42:38 65° W 23:48:47 10° N
Cosmos 2082 4.0 23:49:09 62° N 23:49:09 62° N 23:53:57 10° NNE
Cosmos 2333 4.5 23:42:40 10° NNW 23:47:37 66° NW 23:47:37 66° NW
Cosmos 1709 Rocket 4.5 23:52:26 49° NE 23:52:26 49° NE 23:57:08 10° NNE
Cosmos 2237 Rocket 3.2 23:46:11 10° N 23:50:31 37° NE 23:50:31 37° NE
SeaSat 1 4.3 23:55:21 21° NE 23:55:21 21° NE 23:58:09 10° N
